星链-346998(STARLINK-346998)

导读 | 豆包AI

STARLINK-34698是美国SpaceX星链星座项目的卫星,于2025年11月11日发射升空。星链项目旨在构建全球卫星互联网覆盖网络,为全球偏远地区、海洋航空等场景提供宽带网络服务。该卫星加入星链星座后,进一步扩大了星座的覆盖范围与服务容量,助力星链持续推进全球互联目标的实现。

Basic Information
目录编号:
66445
目录名称:
STARLINK-34698
国际标识:
2025-259Z
轨道中心:
EARTH
卫星名称:
星链-346998
卫星全名:
星链-346998(STARLINK-346998)
卫星状态:
在轨 (已飞行170 天)
发射日期:
2025-11-11 UTC
国别 :
美国 (US)
星等 :
--
Orbit Information
数据来源 国际轨道数据 AOE轨道数据
星历时间 2026-04-30T23:32:17+0800
7小时前
查看轨道信息
2026-04-28T16:00:00+0800
2天前
查看轨道信息
半长轴 6861.133km 6861.228km
偏心率 0.0000744 0.0002343
轨道倾角 43.000° 43.004°
近地点辐角 291.224° 266.281°
升交点赤经 341.250° 354.318°
平近点角 68.853° 313.044°
近地点 482.485km 481.483km
远地点 483.507km 484.699km
周期 94.266分钟 94.268分钟
每日圈数 15.275979 15.275662
Detailed Information
固有亮度:
5
最大亮度:
2.5
卫星平台:
Starlink V1.0
覆盖范围:
全球
运营商:
太空探索技术公司
运营商所在国:
美国
制造商(研发单位):
太空探索技术公司
制造商所在国:
美国
使用方式:
暂无
Satellite Introduction
Starlink 计划是 SpaceX 推出的全球卫星互联网项目,通过发射低轨道卫星,为全球尤其是偏远地区提供高速、低延迟的互联网服务。自 2019 年起,Starlink 已部署数千颗卫星,旨在缩小全球数字鸿沟,推动互联网普及。该项目还为军事、航空等行业提供通信支持,带来广泛经济效益。
2D Orbit Map
3D Orbit Map
Orbit Altitude Analysis Chart
Orbit Inclination Analysis Chart
Orbit Comprehensive Analysis Chart
View Comprehensive Chart